Lexington Weather

Lexington, Massachusetts, USA

34°F
4/16/2021 9:22am 
  • Lexington Conditions: Snow, Mist, Overcast
  • Temperature: 34.2°F / 1.2°CColder 3.9°F than last hour.
  • Dew Point: 32.9°FDecreased 4.0°Fsince last hour.
  • Relative Humidity: 95
  • Wind: Wind from N N Calm, 10-min avg: 1 mph, gust: 2 mph
  • Barometer: 29.48 inFalling 0.03  inHg/hr Falling Slowly
  • Visibility: ½ mile
  • Snow Today: 0.3 in
  •   

Regional Weather Roundup
for Boston / Norton, MA

        
000
ASUS41 KBOX 142105
RWRBOX

REGIONAL WEATHER ROUNDUP
NATIONAL WEATHER SERVICE BOSTON/NORTON MA
500 PM EDT WED APR 14 2021

NOTE:  "FAIR" INDICATES FEW OR NO CLOUDS BELOW 12,000 FEET WITH NO 
SIGNIFICANT WEATHER AND/OR OBSTRUCTIONS TO VISIBILITY.

MAZALL-142200-
EASTERN MASSACHUSETTS
  
CITY           SKY/WX    TMP DP  RH WIND       PRES   REMARKS
BOSTON         MOSUNNY   50  39  66 E15       29.98F                  
BEVERLY        NOT AVBL                                               
LAWRENCE       SUNNY     58  40  51 SE6       29.97F                  
BEDFORD        SUNNY     56  39  53 E14       29.95F                  
BLUE HILL        N/A     56  38  50 E12G20    29.94F                  
NORWOOD        SUNNY     60  38  43 E12G18    29.95F                  
MARSHFIELD     SUNNY     48  37  66 SE7       29.99F                  
PLYMOUTH       SUNNY     53  36  52 E10       29.98F                  
TAUNTON          N/A    N/A N/A N/A MISG      29.96F                  
NEW BEDFORD    SUNNY     55  39  54 S9        29.97F                  
$$

MAZALL-142200-
CAPE COD AND THE ISLANDS
  
CITY           SKY/WX    TMP DP  RH WIND       PRES   REMARKS
FALMOUTH       SUNNY     54  36  50 SE14      29.99F                  
HYANNIS        SUNNY     53  38  56 VRB3      29.98F                  
CHATHAM        SUNNY     48  35  60 NE10      30.01S                  
PROVINCETOWN   SUNNY     48  38  68 E9        30.01F                  
NANTUCKET      SUNNY     52  36  54 E6        30.00S                  
MARTHAS VNYRD  MOSUNNY   52  41  66 S9        29.99F                  
$$
 
MAZALL-142200-
CENTRAL AND WESTERN MASSACHUSETTS
  
CITY           SKY/WX    TMP DP  RH WIND       PRES   REMARKS
WORCESTER      MOSUNNY   64  42  44 SE8       29.91F                  
FITCHBURG      MOSUNNY   65  42  43 SE10      29.91F                  
ORANGE         PTSUNNY   66  41  40 S6        29.89F                  
SPRINGFIELD    PTSUNNY   71  39  30 SW6       29.86F                  
WESTFIELD      CLOUDY    68  40  35 SE7       29.87F                  
NORTH ADAMS    CLOUDY    69  33  26 NW5       29.86F                  
PITTSFIELD     CLOUDY    65  35  33 SW7       29.86F                  
$$
 
RIZALL-142200-
RHODE ISLAND
  
CITY           SKY/WX    TMP DP  RH WIND       PRES   REMARKS
PROVIDENCE     PTSUNNY   52  39  61 SE15      29.97F                  
NEWPORT        MOSUNNY   49  37  63 S13       29.98F                  
BLOCK ISLAND   MOSUNNY   48  40  73 SE12      29.98F                  
SMITHFIELD     MOSUNNY   55  42  61 SE8       29.95F                  
WESTERLY       PTSUNNY   48  41  76 SE9       29.98F                  
$$
 
CTZALL-142200-
CONNECTICUT
  
CITY           SKY/WX    TMP DP  RH WIND       PRES   REMARKS
BRADLEY INTL   PTSUNNY   67  42  40 SE18      29.88F                  
HARTFORD       PTSUNNY   64  43  46 S15       29.89F                  
BRIDGEPORT     MOSUNNY   53  46  77 E13       29.91F                  
DANBURY        PTSUNNY   70  40  33 SW12      29.88F                  
GROTON         PTSUNNY   51  44  77 SE13      29.96F                  
NEW HAVEN      CLOUDY    60  47  61 E13       29.91F                  
CHESTER        FAIR      59  45  58 VRB7      29.93F                  
MERIDEN        PTSUNNY   65  42  43 S10       29.89F                  
WILLIMANTIC    CLOUDY    58  43  57 SE10      29.93F                  
OXFORD         CLOUDY    64  44  48 S16       29.90F                  
$$

MEZ002-015-021-024-NHZ003-005-008-011-012-014-VTZ005-008-142200-
NORTHERN NEW ENGLAND
  
CITY           SKY/WX    TMP DP  RH WIND       PRES   REMARKS
PORTLAND ME    SUNNY     48  39  71 S12       29.96F                  
BANGOR ME      SUNNY     61  24  24 N8        29.93F                  
CONCORD NH     SUNNY     63  40  42 SE12      29.90F                  
MANCHESTER NH  MOSUNNY   63  39  41 SE12      29.91F                  
NASHUA NH      MOSUNNY   62  41  46 SE10      29.93F                  
PORTSMOUTH NH  MOSUNNY   51  37  58 SE9       29.97F                  
JAFFREY NH     PTSUNNY   63  41  44 VRB3      29.90F                  
KEENE NH       PTSUNNY   67  42  40 S5        29.87F                  
BURLINGTON VT  PTSUNNY   65  34  31 NW12      29.87F                  
MT. WASHINGTON NOT AVBL                                               
$$

NYZ052-076-142200-
EASTERN NEW YORK
  
CITY           SKY/WX    TMP DP  RH WIND       PRES   REMARKS
ALBANY         CLOUDY    65  37  35 SE3       29.86F                  
NEW YORK CITY  CLOUDY    69  41  36 SW10      29.90F                  
$$
 
ANZALL-142200-
MARINE OBSERVATIONS
  
STATION/POSITION TIME  TEMP    WIND        PRES    VSBY  WAVE
                       AIR SEA DIR/SP/G                  HT/PER
                 (UTC) (F)     (DEG/KT/KT) (MB)    (MI)  (FT/S)
BOSTON BUOY      2040   44 45  120/  8/ 10 1016.0F
BUZZARDS BAY     2000          180/ 10/ 10 1017.0F
NANTUCKET SOUND  2040      48                N/A
MASS BAY-STELLWA 2004   45     120/  8/ 10 1015.1F  1 7/8  5/ 8
ISLE OF SHOALS   2000   44     150/  9/ 10 1015.5F
S OF BLOCK IS    2026      46                N/A           3/ 8
$$

......................KEY.........................
  SKY/WX - SKY CONDITION/PRESENT WEATHER
  TMP    - TEMPERATURE IN FAHRENHEIT
  DWPT   - DEWPOINT IN FAHRENHEIT
  RH     - RELATIVE HUMIDITY IN PERCENT
  WIND   - DIRECTION AND SPEED IN MPH
  PRES   - MEAN SEA LEVEL PRESSURE IN INCHES OF HG
  WCI    - WIND CHILL INDEX
  VSB    - VISIBILITY IN MILES
  HX     - HEAT INDEX
  TC     - TEMPERATURE IN CELSIUS
  VRB    - VARIABLE WIND DIRECTION
  N/A    - NOT AVAILABLE
  
      

Other recent Regional Weather Roundups

Fri Apr 16, 9:04am

Fri Apr 16, 8:04am

Fri Apr 16, 7:04am

Fri Apr 16, 6:04am

Fri Apr 16, 5:04am

Fri Apr 16, 4:04am

Fri Apr 16, 3:04am

Fri Apr 16, 2:04am

Fri Apr 16, 1:04am

Fri Apr 16, 12:04am

Thu Apr 15, 11:05pm

Thu Apr 15, 10:04pm

Thu Apr 15, 9:04pm

Thu Apr 15, 8:04pm

Thu Apr 15, 7:05pm

Thu Apr 15, 6:04pm

Thu Apr 15, 5:05pm

Thu Apr 15, 4:04pm

Thu Apr 15, 3:05pm

Thu Apr 15, 2:04pm

Thu Apr 15, 1:05pm

Thu Apr 15, 12:04pm

Thu Apr 15, 11:04am

Thu Apr 15, 10:05am

Thu Apr 15, 9:04am

Thu Apr 15, 8:04am

Thu Apr 15, 7:04am

Thu Apr 15, 6:04am

Thu Apr 15, 5:04am

Thu Apr 15, 4:04am

Thu Apr 15, 3:04am

Thu Apr 15, 2:04am

Thu Apr 15, 1:04am

Thu Apr 15, 12:04am

Wed Apr 14, 11:04pm

Wed Apr 14, 10:04pm

Wed Apr 14, 9:04pm

Wed Apr 14, 8:04pm

Wed Apr 14, 7:04pm

Wed Apr 14, 6:04pm

Wed Apr 14, 4:04pm

Wed Apr 14, 3:05pm

Wed Apr 14, 2:04pm

Wed Apr 14, 1:05pm

Wed Apr 14, 12:04pm

Wed Apr 14, 11:04am

Wed Apr 14, 10:04am

Wed Apr 14, 9:04am

Wed Apr 14, 8:04am

Wed Apr 14, 7:04am

Wed Apr 14, 6:04am

Wed Apr 14, 5:04am

Wed Apr 14, 4:04am

Wed Apr 14, 3:04am

Wed Apr 14, 2:04am

Wed Apr 14, 1:04am

Wed Apr 14, 12:04am

Tue Apr 13, 11:04pm

Tue Apr 13, 10:05pm

Tue Apr 13, 9:05pm

Tue Apr 13, 8:05pm

Tue Apr 13, 7:04pm

Tue Apr 13, 6:04pm

Tue Apr 13, 5:05pm

Tue Apr 13, 4:04pm

Tue Apr 13, 3:04pm

Tue Apr 13, 2:05pm

Tue Apr 13, 1:04pm

Tue Apr 13, 12:05pm

Tue Apr 13, 11:05am

Tue Apr 13, 10:04am

Tue Apr 13, 9:04am

Tue Apr 13, 8:04am

Tue Apr 13, 7:04am

Tue Apr 13, 6:04am

Tue Apr 13, 5:04am

Tue Apr 13, 4:04am

Tue Apr 13, 3:04am

Tue Apr 13, 2:04am

Tue Apr 13, 1:04am

Tue Apr 13, 12:05am

Mon Apr 12, 11:04pm

Mon Apr 12, 10:04pm

Mon Apr 12, 9:04pm

Mon Apr 12, 8:04pm

Mon Apr 12, 7:05pm

Mon Apr 12, 6:04pm

Mon Apr 12, 5:04pm

Mon Apr 12, 4:04pm

Mon Apr 12, 3:05pm

Mon Apr 12, 2:04pm

Mon Apr 12, 1:05pm

Mon Apr 12, 12:04pm

Mon Apr 12, 11:04am

Mon Apr 12, 10:04am

Mon Apr 12, 9:04am

Mon Apr 12, 8:04am

Mon Apr 12, 7:04am

Mon Apr 12, 6:04am

Mon Apr 12, 5:04am

Mon Apr 12, 4:04am

Mon Apr 12, 3:04am

Mon Apr 12, 2:04am

Mon Apr 12, 1:05am

Mon Apr 12, 12:04am

Sun Apr 11, 11:04pm

Sun Apr 11, 10:04pm

Sun Apr 11, 9:04pm

Sun Apr 11, 8:04pm

Sun Apr 11, 7:04pm

Sun Apr 11, 6:05pm

Sun Apr 11, 5:05pm

Sun Apr 11, 4:04pm

Sun Apr 11, 3:05pm

Sun Apr 11, 2:05pm

Sun Apr 11, 1:05pm

Sun Apr 11, 12:04pm

Sun Apr 11, 11:05am

Sun Apr 11, 10:05am

Sun Apr 11, 9:04am

Sun Apr 11, 8:04am

Sun Apr 11, 7:04am

Sun Apr 11, 6:04am

Sun Apr 11, 5:04am

Sun Apr 11, 4:04am

Sun Apr 11, 3:04am

Sun Apr 11, 2:04am

Sun Apr 11, 1:05am

Sun Apr 11, 12:04am

Sat Apr 10, 11:05pm

Sat Apr 10, 10:04pm

Sat Apr 10, 9:04pm

Sat Apr 10, 8:04pm

Sat Apr 10, 7:05pm

Sat Apr 10, 6:04pm

Sat Apr 10, 5:04pm

Sat Apr 10, 4:04pm

Sat Apr 10, 3:04pm

Sat Apr 10, 2:05pm

Sat Apr 10, 1:04pm

Sat Apr 10, 12:04pm

Sat Apr 10, 11:04am

Sat Apr 10, 10:04am

Sat Apr 10, 9:04am

Sat Apr 10, 8:04am

Sat Apr 10, 7:04am

Sat Apr 10, 6:04am

Sat Apr 10, 5:04am

Sat Apr 10, 4:04am

Sat Apr 10, 3:04am

Sat Apr 10, 2:04am

Sat Apr 10, 1:05am

Sat Apr 10, 12:04am

Fri Apr 9, 11:04pm

Fri Apr 9, 10:05pm

Fri Apr 9, 9:04pm

Fri Apr 9, 8:05pm

Fri Apr 9, 7:05pm

Fri Apr 9, 6:04pm

Fri Apr 9, 5:04pm

Fri Apr 9, 4:05pm

Fri Apr 9, 3:05pm

Fri Apr 9, 2:04pm

Fri Apr 9, 1:04pm

Fri Apr 9, 12:04pm

Fri Apr 9, 11:05am

Fri Apr 9, 10:04am

Fri Apr 9, 9:04am

Meta data:

ID: d9a41bda-a6e3-474a-bd4a-0cda1b4b7b4e
Link: https://api.weather.gov/products/d9a41bda-a6e3-474a-bd4a-0cda1b4b7b4e